| time (UTC) | temp F | wind direction | speed MPH | gust MPH | rain 1hr in | rain 24hr in | rain mn in | humidity % | barometer mb |
| 20260903135316 | 66 | 215 | 7.0 | 17.0 | 0.00 | 0.06 | 0.03 | 76 | 1012.0 |
| 20260903134817 | 66 | 239 | 6.0 | 12.0 | 0.00 | 0.06 | 0.03 | 76 | 1012.0 |
| 20260903134317 | 66 | 235 | 8.0 | 16.0 | 0.00 | 0.06 | 0.03 | 77 | 1012.1 |
| 20260903133816 | 66 | 215 | 8.0 | 13.0 | 0.00 | 0.06 | 0.03 | 77 | 1012.1 |
| 20260903133316 | 66 | 216 | 5.0 | 12.0 | 0.00 | 0.07 | 0.03 | 78 | 1012.2 |
| 20260903132817 | 66 | 237 | 7.0 | 13.0 | 0.00 | 0.07 | 0.03 | 77 | 1012.4 |
| 20260903132317 | 66 | 251 | 5.0 | 14.0 | 0.00 | 0.07 | 0.03 | 78 | 1012.2 |
| 20260903131817 | 66 | 247 | 6.0 | 10.0 | 0.00 | 0.07 | 0.03 | 78 | 1012.2 |
| 20260903130817 | 66 | 249 | 5.0 | 12.0 | 0.00 | 0.07 | 0.03 | 77 | 1012.1 |
| 20260903130317 | 66 | 249 | 7.0 | 12.0 | 0.00 | 0.07 | 0.03 | 77 | 1012.2 |
| 20260903125817 | 66 | 249 | 5.0 | 12.0 | 0.00 | 0.07 | 0.03 | 77 | 1012.3 |
| 20260903124817 | 66 | 226 | 4.0 | 12.0 | 0.00 | 0.07 | 0.03 | 77 | 1012.3 |
| 20260903124316 | 66 | 228 | 5.0 | 12.0 | 0.00 | 0.08 | 0.03 | 78 | 1012.4 |
| 20260903123816 | 65 | 237 | 5.0 | 13.0 | 0.00 | 0.08 | 0.03 | 78 | 1012.4 |
| 20260903123316 | 65 | 258 | 6.0 | 13.0 | 0.00 | 0.08 | 0.03 | 77 | 1012.6 |
| 20260903122817 | 65 | 224 | 8.0 | 16.0 | 0.00 | 0.08 | 0.03 | 77 | 1012.7 |
| 20260903121316 | 65 | 240 | 6.0 | 12.0 | 0.00 | 0.08 | 0.03 | 78 | 1012.7 |
| 20260903120816 | 65 | 238 | 6.0 | 12.0 | 0.00 | 0.08 | 0.03 | 77 | 1012.8 |
| 20260903120317 | 65 | 251 | 5.0 | 10.0 | 0.00 | 0.08 | 0.03 | 78 | 1012.8 |
| 20260903115816 | 65 | 235 | 5.0 | 12.0 | 0.00 | 0.08 | 0.03 | 78 | 1012.6 |
| 20260903115317 | 64 | 226 | 6.0 | 12.0 | 0.00 | 0.08 | 0.03 | 78 | 1012.7 |
| 20260903114816 | 64 | 237 | 5.0 | 12.0 | 0.00 | 0.08 | 0.03 | 79 | 1012.7 |
| 20260903114316 | 64 | 238 | 6.0 | 13.0 | 0.00 | 0.08 | 0.03 | 78 | 1012.6 |
| 20260903113317 | 64 | 237 | 6.0 | 12.0 | 0.00 | 0.09 | 0.03 | 78 | 1012.7 |
| 20260903112317 | 64 | 259 | 5.0 | 13.0 | 0.00 | 0.10 | 0.03 | 77 | 1012.6 |
| 20260903111816 | 64 | 248 | 4.0 | 13.0 | 0.00 | 0.10 | 0.03 | 78 | 1012.6 |
| 20260903110817 | 64 | 249 | 3.0 | 8.0 | 0.00 | 0.10 | 0.03 | 79 | 1012.5 |
| 20260903110316 | 64 | 251 | 5.0 | 8.0 | 0.00 | 0.10 | 0.03 | 79 | 1012.4 |
| 20260903105816 | 64 | 256 | 6.0 | 10.0 | 0.00 | 0.10 | 0.03 | 77 | 1012.4 |
| 20260903105316 | 64 | 248 | 5.0 | 9.0 | 0.00 | 0.10 | 0.03 | 77 | 1012.3 |
| 20260903104817 | 64 | 243 | 6.0 | 14.0 | 0.00 | 0.11 | 0.03 | 78 | 1012.4 |
| 20260903103817 | 63 | 257 | 5.0 | 10.0 | 0.00 | 0.11 | 0.03 | 80 | 1012.5 |
| 20260903103316 | 63 | 239 | 5.0 | 14.0 | 0.00 | 0.11 | 0.03 | 80 | 1012.5 |
| 20260903102817 | 63 | 253 | 6.0 | 10.0 | 0.00 | 0.11 | 0.03 | 80 | 1012.5 |
| 20260903102316 | 63 | 250 | 6.0 | 12.0 | 0.00 | 0.11 | 0.03 | 81 | 1012.3 |
| 20260903101816 | 63 | 226 | 6.0 | 12.0 | 0.00 | 0.11 | 0.03 | 83 | 1012.2 |
| 20260903101317 | 62 | 258 | 4.0 | 7.0 | 0.00 | 0.11 | 0.03 | 85 | 1012.2 |
| 20260903100816 | 62 | 246 | 5.0 | 12.0 | 0.00 | 0.11 | 0.03 | 85 | 1012.3 |
| 20260903100316 | 62 | 251 | 5.0 | 12.0 | 0.00 | 0.11 | 0.03 | 86 | 1012.3 |
| 20260903095816 | 62 | 252 | 6.0 | 10.0 | 0.00 | 0.11 | 0.03 | 86 | 1012.1 |
| 20260903095316 | 61 | 235 | 4.0 | 13.0 | 0.00 | 0.11 | 0.03 | 87 | 1012.2 |
| 20260903094817 | 61 | 250 | 7.0 | 13.0 | 0.00 | 0.11 | 0.03 | 87 | 1012.2 |
| 20260903094316 | 61 | 243 | 5.0 | 12.0 | 0.00 | 0.11 | 0.03 | 87 | 1012.2 |
| 20260903093816 | 61 | 246 | 5.0 | 8.0 | 0.00 | 0.11 | 0.03 | 88 | 1012.1 |
| 20260903093317 | 61 | 244 | 5.0 | 8.0 | 0.00 | 0.11 | 0.03 | 88 | 1012.2 |
| 20260903092816 | 61 | 237 | 5.0 | 10.0 | 0.00 | 0.11 | 0.03 | 89 | 1012.0 |
| 20260903092316 | 61 | 240 | 5.0 | 12.0 | 0.00 | 0.11 | 0.03 | 88 | 1012.0 |
| 20260903091316 | 61 | 249 | 5.0 | 13.0 | 0.00 | 0.11 | 0.03 | 89 | 1012.1 |
| 20260903090316 | 61 | 241 | 7.0 | 20.0 | 0.00 | 0.11 | 0.03 | 89 | 1011.8 |
| 20260903085316 | 60 | 238 | 4.0 | 15.0 | 0.00 | 0.11 | 0.03 | 91 | 1011.5 |
| 20260903084817 | 60 | 250 | 6.0 | 12.0 | 0.01 | 0.11 | 0.03 | 91 | 1011.5 |
| 20260903084316 | 60 | 254 | 5.0 | 12.0 | 0.01 | 0.11 | 0.03 | 91 | 1011.5 |
| 20260903083816 | 60 | 248 | 8.0 | 15.0 | 0.01 | 0.11 | 0.03 | 91 | 1011.4 |
| 20260903083316 | 60 | 249 | 7.0 | 12.0 | 0.01 | 0.11 | 0.03 | 91 | 1011.4 |
| 20260903082816 | 60 | 238 | 7.0 | 15.0 | 0.01 | 0.11 | 0.03 | 91 | 1011.2 |
| 20260903082317 | 60 | 219 | 6.0 | 12.0 | 0.01 | 0.11 | 0.03 | 91 | 1011.2 |
| 20260903081816 | 60 | 237 | 7.0 | 12.0 | 0.01 | 0.11 | 0.03 | 91 | 1011.2 |
| 20260903081316 | 60 | 240 | 7.0 | 14.0 | 0.01 | 0.11 | 0.03 | 92 | 1011.3 |
| 20260903080817 | 60 | 236 | 5.0 | 14.0 | 0.01 | 0.11 | 0.03 | 92 | 1011.2 |
| 20260903080316 | 60 | 239 | 5.0 | 13.0 | 0.02 | 0.11 | 0.03 | 92 | 1011.2 |
| 20260903075817 | 60 | 252 | 4.0 | 13.0 | 0.02 | 0.11 | 0.03 | 92 | 1011.2 |
| 20260903075316 | 60 | 238 | 6.0 | 13.0 | 0.02 | 0.11 | 0.03 | 92 | 1011.3 |
| 20260903074816 | 60 | 236 | 5.0 | 12.0 | 0.02 | 0.10 | 0.02 | 92 | 1011.3 |
| 20260903074316 | 60 | 243 | 7.0 | 13.0 | 0.02 | 0.10 | 0.02 | 91 | 1011.1 |
| 20260903073316 | 60 | 242 | 6.0 | 12.0 | 0.02 | 0.10 | 0.02 | 91 | 1011.1 |
| 20260903072317 | 60 | 242 | 7.0 | 14.0 | 0.02 | 0.10 | 0.02 | 92 | 1011.2 |
| 20260903071816 | 60 | 250 | 6.0 | 10.0 | 0.02 | 0.10 | 0.02 | 92 | 1010.9 |
| 20260903071316 | 60 | 233 | 5.0 | 12.0 | 0.02 | 0.10 | 0.02 | 92 | 1010.8 |
| 20260903070816 | 60 | 241 | 5.0 | 10.0 | 0.02 | 0.10 | 0.02 | 92 | 1010.6 |
| 20260903070316 | 60 | 259 | 5.0 | 12.0 | 0.01 | 0.09 | 0.02 | 91 | 1010.5 |
| 20260903065816 | 60 | 235 | 6.0 | 12.0 | 0.01 | 0.09 | 0.02 | 91 | 1010.6 |
| 20260903065316 | 60 | 237 | 7.0 | 15.0 | 0.01 | 0.09 | 0.02 | 91 | 1010.5 |
| 20260903064817 | 60 | 253 | 7.0 | 14.0 | 0.00 | 0.09 | 0.01 | 90 | 1010.6 |
| 20260903064316 | 60 | 246 | 10.0 | 14.0 | 0.00 | 0.09 | 0.01 | 91 | 1010.5 |
| 20260903063816 | 60 | 249 | 6.0 | 15.0 | 0.00 | 0.09 | 0.01 | 91 | 1010.5 |
| 20260903063316 | 60 | 246 | 7.0 | 15.0 | 0.00 | 0.09 | 0.01 | 91 | 1010.2 |
| 20260903062817 | 60 | 236 | 6.0 | 12.0 | 0.00 | 0.09 | 0.01 | 92 | 1010.2 |
| 20260903062316 | 60 | 236 | 5.0 | 12.0 | 0.00 | 0.09 | 0.01 | 92 | 1010.3 |
| 20260903061816 | 60 | 241 | 7.0 | 12.0 | 0.00 | 0.09 | 0.01 | 92 | 1010.2 |
| 20260903060817 | 60 | 246 | 7.0 | 17.0 | 0.00 | 0.09 | 0.01 | 92 | 1010.2 |
| 20260903060316 | 60 | 253 | 6.0 | 15.0 | 0.00 | 0.09 | 0.01 | 91 | 1010.1 |
| 20260903055817 | 61 | 252 | 7.0 | 12.0 | 0.00 | 0.09 | 0.01 | 91 | 1010.1 |
| 20260903054816 | 61 | 244 | 7.0 | 13.0 | 0.00 | 0.09 | 0.01 | 91 | 1010.0 |
| 20260903054315 | 61 | 234 | 6.0 | 15.0 | 0.00 | 0.09 | 0.01 | 91 | 1010.0 |
| 20260903053817 | 61 | 240 | 6.0 | 12.0 | 0.00 | 0.09 | 0.01 | 90 | 1009.9 |
| 20260903053315 | 61 | 247 | 6.0 | 14.0 | 0.00 | 0.09 | 0.01 | 90 | 1010.0 |
| 20260903052816 | 61 | 248 | 7.0 | 12.0 | 0.00 | 0.09 | 0.01 | 90 | 1010.1 |
| 20260903051816 | 61 | 238 | 6.0 | 12.0 | 0.00 | 0.09 | 0.01 | 90 | 1009.8 |
| 20260903051316 | 61 | 249 | 8.0 | 13.0 | 0.00 | 0.09 | 0.01 | 90 | 1009.9 |
| 20260903050816 | 61 | 237 | 5.0 | 10.0 | 0.00 | 0.09 | 0.01 | 90 | 1009.9 |
| 20260903050317 | 61 | 242 | 6.0 | 14.0 | 0.00 | 0.09 | 0.01 | 90 | 1009.9 |
| 20260903045816 | 62 | 238 | 5.0 | 10.0 | 0.00 | 0.09 | 0.01 | 90 | 1010.0 |
| 20260903045315 | 62 | 234 | 5.0 | 12.0 | 0.00 | 0.09 | 0.01 | 90 | 1009.9 |
| 20260903044817 | 62 | 251 | 6.0 | 10.0 | 0.00 | 0.09 | 0.01 | 90 | 1010.0 |
| 20260903044316 | 62 | 243 | 6.0 | 10.0 | 0.00 | 0.09 | 0.01 | 90 | 1010.0 |
| 20260903043816 | 62 | 254 | 5.0 | 10.0 | 0.00 | 0.09 | 0.01 | 91 | 1009.9 |
| 20260903043316 | 62 | 248 | 6.0 | 13.0 | 0.00 | 0.09 | 0.01 | 90 | 1009.9 |
| 20260903042816 | 62 | 242 | 5.0 | 12.0 | 0.00 | 0.09 | 0.01 | 90 | 1009.9 |
| 20260903042317 | 62 | 265 | 6.0 | 14.0 | 0.00 | 0.09 | 0.01 | 90 | 1009.8 |
| 20260903041316 | 62 | 262 | 6.0 | 12.0 | 0.00 | 0.09 | 0.01 | 90 | 1009.7 |
| 20260903040816 | 62 | 258 | 7.0 | 12.0 | 0.00 | 0.09 | 0.01 | 90 | 1009.9 |
| 20260903040317 | 62 | 233 | 5.0 | 9.0 | 0.00 | 0.09 | 0.01 | 91 | 1009.9 |
| 20260903034817 | 62 | 238 | 5.0 | 8.0 | 0.00 | 0.09 | 0.01 | 92 | 1009.8 |
| 20260903033317 | 62 | 242 | 5.0 | 14.0 | 0.00 | 0.09 | 0.01 | 92 | 1009.8 |
| 20260903032816 | 62 | 250 | 6.0 | 12.0 | 0.00 | 0.09 | 0.01 | 92 | 1009.7 |
| 20260903032316 | 62 | 249 | 5.0 | 10.0 | 0.00 | 0.09 | 0.01 | 92 | 1009.8 |
| 20260903031816 | 62 | 249 | 6.0 | 10.0 | 0.00 | 0.09 | 0.01 | 92 | 1009.6 |
| 20260903031316 | 62 | 248 | 6.0 | 13.0 | 0.00 | 0.09 | 0.01 | 92 | 1009.5 |
| 20260903030816 | 62 | 234 | 7.0 | 14.0 | 0.00 | 0.09 | 0.01 | 92 | 1009.7 |
| 20260903030316 | 63 | 245 | 7.0 | 13.0 | 0.00 | 0.09 | 0.01 | 92 | 1009.7 |
| 20260903025816 | 63 | 257 | 7.0 | 15.0 | 0.00 | 0.09 | 0.01 | 92 | 1009.6 |
| 20260903024316 | 63 | 239 | 6.0 | 12.0 | 0.00 | 0.09 | 0.01 | 92 | 1009.7 |
| 20260903023816 | 63 | 256 | 8.0 | 13.0 | 0.00 | 0.09 | 0.01 | 91 | 1009.6 |
| 20260903023316 | 63 | 249 | 7.0 | 14.0 | 0.00 | 0.09 | 0.01 | 91 | 1009.7 |
| 20260903022816 | 63 | 239 | 6.0 | 14.0 | 0.00 | 0.09 | 0.01 | 91 | 1009.7 |
| 20260903022316 | 63 | 235 | 5.0 | 10.0 | 0.00 | 0.09 | 0.01 | 92 | 1009.6 |
| 20260903020816 | 63 | 226 | 7.0 | 15.0 | 0.00 | 0.09 | 0.01 | 91 | 1009.8 |
| 20260903020316 | 63 | 241 | 7.0 | 12.0 | 0.00 | 0.09 | 0.01 | 91 | 1010.0 |
| 20260903015316 | 63 | 251 | 8.0 | 16.0 | 0.00 | 0.09 | 0.01 | 91 | 1010.0 |
| 20260903014816 | 64 | 240 | 9.0 | 14.0 | 0.00 | 0.09 | 0.01 | 90 | 1010.0 |
| 20260903014316 | 64 | 245 | 10.0 | 15.0 | 0.00 | 0.09 | 0.01 | 90 | 1009.9 |
| 20260903013816 | 64 | 237 | 9.0 | 18.0 | 0.00 | 0.09 | 0.01 | 90 | 1009.8 |
| 20260903013317 | 64 | 244 | 6.0 | 12.0 | 0.00 | 0.09 | 0.01 | 90 | 1009.8 |
| 20260903012816 | 63 | 245 | 7.0 | 14.0 | 0.00 | 0.09 | 0.01 | 91 | 1009.8 |
| 20260903012316 | 63 | 242 | 6.0 | 12.0 | 0.00 | 0.09 | 0.01 | 91 | 1009.7 |
| 20260903011816 | 63 | 250 | 7.0 | 13.0 | 0.01 | 0.09 | 0.01 | 91 | 1009.7 |
| 20260903011316 | 63 | 245 | 8.0 | 15.0 | 0.01 | 0.09 | 0.01 | 92 | 1009.7 |
| 20260903010815 | 63 | 224 | 7.0 | 16.0 | 0.01 | 0.09 | 0.01 | 92 | 1009.7 |
| 20260903010316 | 63 | 231 | 5.0 | 12.0 | 0.01 | 0.09 | 0.01 | 92 | 1009.4 |
| 20260903005816 | 63 | 220 | 5.0 | 13.0 | 0.01 | 0.09 | 0.01 | 92 | 1009.5 |
| 20260903005316 | 63 | 253 | 6.0 | 13.0 | 0.01 | 0.09 | 0.01 | 92 | 1009.5 |
| 20260903003816 | 63 | 240 | 6.0 | 12.0 | 0.01 | 0.09 | 0.01 | 92 | 1009.9 |
| 20260903003316 | 63 | 228 | 6.0 | 12.0 | 0.01 | 0.09 | 0.01 | 92 | 1009.7 |
| 20260903002817 | 63 | 216 | 8.0 | 16.0 | 0.01 | 0.09 | 0.01 | 92 | 1009.7 |
| 20260903002316 | 63 | 234 | 6.0 | 14.0 | 0.01 | 0.09 | 0.01 | 92 | 1009.7 |
| 20260903001816 | 63 | 229 | 6.0 | 10.0 | 0.00 | 0.08 | 0.00 | 92 | 1009.9 |
| 20260903001315 | 63 | 232 | 5.0 | 14.0 | 0.00 | 0.08 | 0.00 | 92 | 1009.9 |
| 20260903000816 | 63 | 216 | 6.0 | 12.0 | 0.00 | 0.08 | 0.00 | 92 | 1010.0 |
| 20260903000317 | 63 | 219 | 4.0 | 7.0 | 0.00 | 0.08 | 0.00 | 92 | 1010.1 |
| 20260902235816 | 63 | 221 | 5.0 | 12.0 | 0.00 | 0.08 | 0.00 | 92 | 1010.1 |
| 20260902235315 | 63 | 239 | 4.0 | 8.0 | 0.00 | 0.08 | 0.00 | 92 | 1010.1 |
| 20260902234816 | 63 | 228 | 5.0 | 10.0 | 0.00 | 0.08 | 0.00 | 92 | 1010.1 |
| 20260902234315 | 63 | 238 | 6.0 | 10.0 | 0.00 | 0.08 | 0.00 | 92 | 1010.0 |
| 20260902233816 | 63 | 209 | 5.0 | 12.0 | 0.00 | 0.08 | 0.00 | 92 | 1010.0 |
| 20260902232815 | 63 | 229 | 4.0 | 8.0 | 0.00 | 0.08 | 0.00 | 93 | 1010.3 |
| 20260902232316 | 63 | 241 | 3.0 | 7.0 | 0.00 | 0.08 | 0.00 | 93 | 1010.2 |
| 20260902231816 | 63 | 219 | 4.0 | 7.0 | 0.01 | 0.08 | 0.00 | 93 | 1010.2 |
| 20260902231315 | 63 | 225 | 3.0 | 9.0 | 0.02 | 0.08 | 0.00 | 93 | 1010.3 |
| 20260902230856 | 63 | 216 | 5.0 | 9.0 | 0.02 | 0.08 | 0.00 | 93 | 1010.2 |
| 20260902230316 | 63 | 225 | 5.0 | 8.0 | 0.02 | 0.08 | 0.00 | 93 | 1010.2 |
| 20260902225816 | 63 | 226 | 5.0 | 9.0 | 0.02 | 0.08 | 0.08 | 93 | 1010.2 |
| 20260902225316 | 63 | 212 | 6.0 | 14.0 | 0.02 | 0.08 | 0.08 | 93 | 1010.4 |
| 20260902224816 | 63 | 213 | 6.0 | 14.0 | 0.02 | 0.08 | 0.08 | 93 | 1010.3 |
| 20260902224316 | 63 | 203 | 7.0 | 12.0 | 0.02 | 0.08 | 0.08 | 93 | 1010.2 |
| 20260902223315 | 63 | 207 | 5.0 | 10.0 | 0.02 | 0.08 | 0.08 | 93 | 1010.2 |
| 20260902221816 | 63 | 206 | 5.0 | 8.0 | 0.02 | 0.08 | 0.08 | 92 | 1010.5 |
| 20260902221317 | 63 | 207 | 5.0 | 9.0 | 0.00 | 0.06 | 0.06 | 92 | 1010.4 |
| 20260902220815 | 63 | 214 | 5.0 | 10.0 | 0.00 | 0.06 | 0.06 | 92 | 1010.4 |
| 20260902220316 | 63 | 236 | 4.0 | 7.0 | 0.00 | 0.06 | 0.06 | 92 | 1010.5 |
| 20260902215816 | 63 | 216 | 4.0 | 7.0 | 0.00 | 0.06 | 0.06 | 92 | 1010.3 |
| 20260902215316 | 63 | 217 | 3.0 | 7.0 | 0.00 | 0.06 | 0.06 | 92 | 1010.4 |
| 20260902214816 | 63 | 239 | 4.0 | 8.0 | 0.00 | 0.06 | 0.06 | 92 | 1010.5 |
| 20260902214316 | 63 | 241 | 4.0 | 7.0 | 0.00 | 0.06 | 0.06 | 92 | 1010.6 |
| 20260902213816 | 63 | 228 | 5.0 | 9.0 | 0.00 | 0.06 | 0.06 | 91 | 1010.7 |
| 20260902213315 | 63 | 227 | 5.0 | 12.0 | 0.00 | 0.06 | 0.06 | 91 | 1010.7 |
| 20260902212816 | 63 | 215 | 4.0 | 9.0 | 0.00 | 0.06 | 0.06 | 91 | 1010.6 |
| 20260902212316 | 63 | 245 | 6.0 | 12.0 | 0.00 | 0.06 | 0.06 | 91 | 1010.5 |
| 20260902211815 | 63 | 222 | 6.0 | 12.0 | 0.00 | 0.06 | 0.06 | 91 | 1010.5 |
| 20260902211316 | 63 | 219 | 5.0 | 9.0 | 0.00 | 0.06 | 0.06 | 91 | 1010.5 |
| 20260902210316 | 63 | 219 | 4.0 | 8.0 | 0.00 | 0.06 | 0.06 | 91 | 1010.5 |
| 20260902205815 | 63 | 227 | 4.0 | 12.0 | 0.00 | 0.06 | 0.06 | 91 | 1010.5 |
| 20260902205315 | 63 | 245 | 4.0 | 9.0 | 0.00 | 0.06 | 0.06 | 91 | 1010.4 |
| 20260902204815 | 63 | 244 | 5.0 | 9.0 | 0.00 | 0.06 | 0.06 | 92 | 1010.4 |
| 20260902203816 | 63 | 219 | 4.0 | 10.0 | 0.00 | 0.06 | 0.06 | 92 | 1010.3 |
| 20260902203316 | 63 | 243 | 4.0 | 8.0 | 0.00 | 0.06 | 0.06 | 92 | 1010.4 |
| 20260902202816 | 63 | 214 | 3.0 | 7.0 | 0.00 | 0.06 | 0.06 | 92 | 1010.5 |
| 20260902202315 | 63 | 236 | 3.0 | 6.0 | 0.00 | 0.06 | 0.06 | 92 | 1010.4 |
| 20260902201816 | 63 | 248 | 3.0 | 8.0 | 0.00 | 0.06 | 0.06 | 92 | 1010.3 |
| 20260902201317 | 63 | 221 | 5.0 | 10.0 | 0.00 | 0.06 | 0.06 | 92 | 1010.4 |
| 20260902200815 | 63 | 238 | 4.0 | 7.0 | 0.00 | 0.06 | 0.06 | 92 | 1010.4 |
| 20260902195816 | 63 | 220 | 3.0 | 7.0 | 0.00 | 0.06 | 0.06 | 92 | 1010.4 |
| 20260902195315 | 63 | 241 | 3.0 | 8.0 | 0.00 | 0.06 | 0.06 | 93 | 1010.4 |
| 20260902194816 | 63 | 258 | 3.0 | 7.0 | 0.00 | 0.06 | 0.06 | 93 | 1010.3 |
| 20260902193315 | 63 | 248 | 5.0 | 7.0 | 0.00 | 0.06 | 0.06 | 93 | 1010.3 |
| 20260902192816 | 63 | 242 | 3.0 | 8.0 | 0.00 | 0.06 | 0.06 | 93 | 1010.2 |
| 20260902192316 | 63 | 252 | 4.0 | 8.0 | 0.00 | 0.06 | 0.06 | 93 | 1010.2 |
| 20260902191816 | 63 | 245 | 5.0 | 8.0 | 0.00 | 0.06 | 0.06 | 93 | 1010.2 |
| 20260902191316 | 63 | 247 | 5.0 | 9.0 | 0.00 | 0.06 | 0.06 | 94 | 1010.3 |
| 20260902190816 | 63 | 241 | 4.0 | 8.0 | 0.00 | 0.06 | 0.06 | 94 | 1010.3 |
| 20260902190315 | 63 | 239 | 4.0 | 7.0 | 0.00 | 0.06 | 0.06 | 94 | 1010.4 |
| 20260902185816 | 63 | 247 | 3.0 | 6.0 | 0.00 | 0.06 | 0.06 | 94 | 1010.4 |
| 20260902185318 | 63 | 249 | 4.0 | 6.0 | 0.00 | 0.06 | 0.06 | 94 | 1010.5 |
| 20260902184816 | 63 | 256 | 2.0 | 6.0 | 0.00 | 0.06 | 0.06 | 94 | 1010.4 |
| 20260902184316 | 63 | 241 | 3.0 | 6.0 | 0.00 | 0.06 | 0.06 | 94 | 1010.5 |
| 20260902183815 | 63 | 208 | 3.0 | 6.0 | 0.00 | 0.06 | 0.06 | 94 | 1010.5 |
| 20260902183315 | 63 | 212 | 1.0 | 3.0 | 0.00 | 0.06 | 0.06 | 94 | 1010.4 |
| 20260902182815 | 63 | 186 | 1.0 | 3.0 | 0.00 | 0.06 | 0.06 | 94 | 1010.4 |
| 20260902182316 | 63 | 186 | 2.0 | 5.0 | 0.00 | 0.06 | 0.06 | 94 | 1010.4 |
| 20260902181816 | 63 | 199 | 3.0 | 5.0 | 0.00 | 0.06 | 0.06 | 93 | 1010.4 |
| 20260902181316 | 63 | 216 | 3.0 | 6.0 | 0.00 | 0.06 | 0.06 | 93 | 1010.5 |
| 20260902180816 | 63 | 211 | 3.0 | 6.0 | 0.00 | 0.06 | 0.06 | 93 | 1010.4 |
| 20260902180315 | 63 | 198 | 2.0 | 8.0 | 0.00 | 0.06 | 0.06 | 92 | 1010.4 |
| 20260902175815 | 63 | 236 | 2.0 | 5.0 | 0.00 | 0.06 | 0.06 | 92 | 1010.4 |
| 20260902175315 | 63 | 207 | 2.0 | 3.0 | 0.00 | 0.06 | 0.06 | 92 | 1010.4 |
| 20260902174817 | 63 | 196 | 2.0 | 6.0 | 0.00 | 0.06 | 0.06 | 92 | 1010.4 |
| 20260902174315 | 63 | 205 | 3.0 | 5.0 | 0.00 | 0.06 | 0.06 | 92 | 1010.4 |
| 20260902173816 | 63 | 183 | 2.0 | 3.0 | 0.00 | 0.06 | 0.06 | 92 | 1010.4 |
| 20260902173317 | 63 | 183 | 2.0 | 5.0 | 0.00 | 0.06 | 0.06 | 92 | 1010.5 |
| 20260902172815 | 63 | 193 | 2.0 | 5.0 | 0.00 | 0.06 | 0.06 | 92 | 1010.5 |
| 20260902172317 | 63 | 191 | 1.0 | 3.0 | 0.00 | 0.06 | 0.06 | 92 | 1010.5 |
| 20260902171815 | 63 | 191 | 1.0 | 3.0 | 0.00 | 0.06 | 0.06 | 92 | 1010.6 |
| 20260902171316 | 63 | 197 | 1.0 | 2.0 | 0.00 | 0.06 | 0.06 | 92 | 1010.6 |
| 20260902170815 | 63 | 197 | 1.0 | 3.0 | 0.00 | 0.06 | 0.06 | 91 | 1010.6 |
| 20260902170315 | 63 | 209 | 1.0 | 3.0 | 0.00 | 0.06 | 0.06 | 91 | 1010.7 |
| 20260902165816 | 64 | 209 | 1.0 | 3.0 | 0.00 | 0.06 | 0.06 | 91 | 1010.8 |
| 20260902165314 | 64 | 195 | 2.0 | 6.0 | 0.00 | 0.06 | 0.06 | 90 | 1010.9 |
| 20260902164816 | 64 | 204 | 4.0 | 7.0 | 0.00 | 0.06 | 0.06 | 90 | 1011.0 |
| 20260902164317 | 64 | 210 | 3.0 | 7.0 | 0.00 | 0.06 | 0.06 | 90 | 1011.0 |
| 20260902163315 | 64 | 190 | 5.0 | 8.0 | 0.00 | 0.06 | 0.06 | 89 | 1011.0 |
| 20260902162816 | 64 | 162 | 3.0 | 10.0 | 0.00 | 0.06 | 0.06 | 90 | 1010.9 |
| 20260902161816 | 63 | 174 | 4.0 | 8.0 | 0.00 | 0.06 | 0.06 | 90 | 1011.2 |
| 20260902161316 | 63 | 188 | 5.0 | 12.0 | 0.00 | 0.06 | 0.06 | 91 | 1011.3 |
| 20260902160816 | 63 | 200 | 4.0 | 10.0 | 0.00 | 0.06 | 0.06 | 92 | 1011.3 |
| 20260902160315 | 62 | 151 | 3.0 | 8.0 | 0.00 | 0.06 | 0.06 | 93 | 1011.3 |
| 20260902155816 | 62 | 151 | 2.0 | 6.0 | 0.00 | 0.06 | 0.06 | 93 | 1011.3 |
| 20260902154815 | 61 | 135 | 2.0 | 7.0 | 0.00 | 0.06 | 0.06 | 93 | 1011.4 |
| 20260902154316 | 61 | 133 | 3.0 | 5.0 | 0.00 | 0.06 | 0.06 | 93 | 1011.5 |
| 20260902153816 | 61 | 76 | 2.0 | 5.0 | 0.00 | 0.06 | 0.06 | 93 | 1011.6 |
| 20260902153315 | 61 | 111 | 2.0 | 6.0 | 0.00 | 0.06 | 0.06 | 93 | 1011.7 |
| 20260902152816 | 61 | 71 | 1.0 | 3.0 | 0.00 | 0.06 | 0.06 | 93 | 1011.7 |
| 20260902152315 | 61 | 76 | 2.0 | 3.0 | 0.00 | 0.06 | 0.06 | 93 | 1011.8 |
| 20260902151816 | 61 | 100 | 2.0 | 3.0 | 0.00 | 0.06 | 0.06 | 93 | 1011.8 |
| 20260902151315 | 61 | 110 | 2.0 | 7.0 | 0.00 | 0.06 | 0.06 | 93 | 1011.9 |
| 20260902150815 | 61 | 133 | 3.0 | 7.0 | 0.00 | 0.06 | 0.06 | 93 | 1011.9 |
| 20260902150316 | 61 | 144 | 2.0 | 5.0 | 0.01 | 0.06 | 0.06 | 93 | 1011.9 |
| 20260902145816 | 61 | 151 | 1.0 | 5.0 | 0.01 | 0.06 | 0.06 | 93 | 1012.0 |
| 20260902145316 | 61 | 180 | 3.0 | 6.0 | 0.02 | 0.06 | 0.06 | 93 | 1012.0 |
| 20260902144815 | 60 | 151 | 1.0 | 5.0 | 0.02 | 0.06 | 0.06 | 93 | 1012.2 |
| 20260902144315 | 60 | 158 | 3.0 | 6.0 | 0.02 | 0.06 | 0.06 | 93 | 1012.2 |
| 20260902143815 | 60 | 115 | 3.0 | 6.0 | 0.02 | 0.06 | 0.06 | 94 | 1012.2 |
| 20260902143315 | 60 | 103 | 2.0 | 5.0 | 0.02 | 0.06 | 0.06 | 94 | 1012.2 |
| 20260902142815 | 60 | 111 | 3.0 | 5.0 | 0.02 | 0.06 | 0.06 | 94 | 1012.3 |
| 20260902142315 | 60 | 77 | 3.0 | 7.0 | 0.02 | 0.06 | 0.06 | 93 | 1012.3 |
| 20260902141815 | 60 | 106 | 5.0 | 9.0 | 0.02 | 0.06 | 0.06 | 93 | 1012.4 |
| 20260902141315 | 60 | 108 | 3.0 | 7.0 | 0.02 | 0.06 | 0.06 | 93 | 1012.5 |
| 20260902140315 | 60 | 94 | 5.0 | 9.0 | 0.02 | 0.06 | 0.06 | 93 | 1012.6 |
| 20260902135816 | 60 | 77 | 4.0 | 8.0 | 0.02 | 0.06 | 0.06 | 93 | 1012.6 |